Retour au catalogue

STARLINK-37770

ActifCommunicationsSSO
NORAD 69225·PAYLOAD·🇺🇸 United States

Lancé May 26, 2026 depuis Vandenberg Space Force Base

Loading…

Prochains Passages (prochaines 24 heures)

TLE

FraisSource: CelesTrak SupGP

Époque: Sep 14, 2026, 22:50 UTC

1 69225C 26115Q   26257.95187500  .00040858  00000+0  12683-2 0  2579
2 69225  97.2833 274.1469 0001646  91.2113 187.3161 15.33418601    15

Suivez STARLINK-37770 en temps réel avec AllMySat

Download on the App Store